Погода в Мичуринске

Погода в Мичуринске : погода сейчас, прогноз погоды и архив. Всё, что Вы хотите узнать о погоде в Мичуринске!

Хотите узнать прогноз погоды в Мичуринске? Тогда Вам сюда: Погода в Мичуринске

Поиск расширенной информации на нашем сайте:

Другие новости

Новости СМИ2

Главная страница сайта

Новости сайта

03.07.2017

Напоминаем, что на нашем специализированном сайте Метеоцентр.Азия вы можете получить высокодетализированные автоматические прогнозы погоды по пунктам России, СНГ и мира в авиационном формате (включающие направление и скорость ветра, видимость, явления погоды, количество и форму облачности, нижнюю и верхнюю границу облачности).

Рекомендуем: Купить женские велосипеды giant 2014.

Погода в Мичуринске - сегодня

Время (UTC), дата Ветер
(°,м/с) 
Видим.   Явления Облачность Т
(°С)
Тd
(°С)
f(%) Тe
(°С)
Pmin
(гПа)
dP
(гПа)
Po
(мм)
O2
(г/м3)
Тmin Tmax R s Состояние
почвы
03 18.07.17 320 (СЗ) 4000 м  дымка  ясно 
+15.1 +10.7 75 +18  1017.9  0.3  749  284  +13.8         
06 18.07.17 340 (С) 20000 м    3/0 верхняя 
[Ci fib]
+19.8 +11.9 60 +25  1018.4  0.8  750  280           
09 18.07.17 250 (З) 20000 м    4/4 1000 м 
[Cu hum]
+22.9 +9.2 42 +23  1017.7  -0.6  750  277           
12 18.07.17 320 (СЗ) 20000 м    4/4 1000 м 
[Cu med, cong]
+24 +9.8 41 +25  1017.6  750  276           
15 18.07.17 290 (З) 20000 м    3/3 1000 м 
[Cu hum]
+24.6 +7.6 34 +25  1016.6  -1  749  276    +24.6       
18 18.07.17 тихо ()   20000 м    ясно 
+18.1 +10.9 63 +20  1017.3  0.4  749  281           
21 18.07.17 тихо ()   10 км    ясно 
+16.3 +10.9 70 +19  1017.7  0.2  749  283           
00 19.07.17 тихо ()   4000 м  дымка  ясно 
+13.4 +11.3 87 +16  1017.7  -0.1  749  286           
03 19.07.17 тихо ()   4000 м  дымка  ясно 
+15.7 +11.9 78 +19  1017.7  0.1  749  283  +12.9         
06 19.07.17 360 (С) 20000 м    ясно 
+22.2 +11.9 52 +26  1017.7  0.4  750  277           
09 19.07.17 050 (СВ) 20000 м    6/6 1000 м 
[Cu med, cong]
+24.3 +12.3 47 +29  1017.2  -0.4  749  275           
12 19.07.17 020 (С) 20000 м    6/6 1000 м 
[Cu med, cong]
+24.7 +11.9 45 +29  1016.5  -0.7  749  274           
15 19.07.17 340 (С) 20000 м    3/3 1000 м 
[Cu med, cong]
+24.5 +10.7 42 +27  1016  -0.5  748  275    +25.5       
18 19.07.17 320 (СЗ) 20000 м    9/9 600 м 
[Sc]
+19.9 +12.2 61 +25  1017  0.8  749  279           
21 19.07.17 340 (С) 20000 м    3/3 600 м 
[Sc]
+16.4 +11.2 71 +20  1016.7  -0.6  749  282           
00 20.07.17 тихо ()   4000 м  дымка  8/8 600 м 
[Sc]
+15.6 +12.1 80 +20  1016.5  -0.2  748  283           
03 20.07.17 070 (В) 4000 м    8/8 600 м 
[Sc]
+15.7 +10.6 72 +18  1016.8  0.3  749  283  +14.4         
06 20.07.17 140 (ЮВ) 20000 м    4/4 1000 м 
[Cu hum]
+21.6 +8.8 44 +22  1016.2  -0.2  748  278           
09 20.07.17 050 (СВ) 20000 м    6/6 1000 м 
[Cu med, cong]
+23.3 +7.1 35 +23  1015.4  -0.7  748  277           
12 20.07.17 тихо ()   20000 м    6/6 1000 м 
[Cu med, cong]
+23.6 +8.2 37 +24  1014.6  -0.8  747  276           
15 20.07.17 тихо ()   20000 м    8/4 1000 м верхняя 
[Cu med, cong|Ci fib]
+23.1 +9 41 +23  1013.6  -1  747  276    +24.1       
18 20.07.17 тихо ()   20000 м    8/0 верхняя 
[Ci fib]
+18.3 +9.7 57 +19  1014.6  0.7  747  280           
21 20.07.17 тихо ()   4000 м  дымка  4/0 верхняя 
[Ci fib]
+15 +11.1 77 +18  1014.9  0.1  747  283           
00 21.07.17 тихо ()   4000 м  дымка  ясно 
+13 +10.3 84 +15  1014.8  -0.3  747  285           
03 21.07.17 тихо ()   4000 м  дымка  ясно 
+14.4 +11.4 82 +18  1015.1  0.4  747  284  +12.6         
Время (UTC), дата Ветер
(°,м/с) 
Видим.   Явления Облачность Т
(°С)
Тd
(°С)
f(%) Тe
(°С)
Pmin
(гПа)
dP
(гПа)
Po
(мм)
O2
(г/м3)
Тmin Tmax R s Состояние
почвы

Для получения пояснительной информации подведите курсор к названию столбца.

ПОГОДА в Мичуринске - архив

Всё, что Вы хотите узнать о погоде в Мичуринске - удобно и подробно!

Выберите нужную дату (начиная с 1 января 2015* года) и нажмите кнопку "Найти".
Будут отображены архивные сводки погоды по пункту Мичуринск, начиная с указанной даты.


Отображать данные в формате CSV (для использования в таблицах Excel)


Внимание! Наш архив погоды предназначен исключительно для личного некоммерческого использования в познавательных целях. Если Вам необходимы официальные справки о состоянии погоды (для производственных, юридических, коммерческих и т.п. целей), обращайтесь в органы Росгидромета.

*Примечание: данная дата относится к архиву по метеостанциям СССР (Россия, СНГ, Балтия).
Архив по метеостанциям Зарубежной Европы и Азии (кроме Китая) хранится 10 дней, по другим регионам земного шара (Китай, Африка, Америка, Австралия, Океания) - 1 день.

Мичуринск - район местоположения метеостанции


Название, широта, долгота, высота метеостанции:
Мичуринск 52.9°ш. 40.5°д. 158 м над ур. моря [Российская Федерация]

Дополнительная информация

В oтличие oт бoльшинства пoгoдных сайтoв мы публикуем пoдрoбную метеoинфoрмацию в детальнoм прoфессиoнальнoм фoрмате.

Характеристики температуры и влажнoсти вoздуха измеряются на высoте 2 м в тени вдали oт зданий и деревьев.
Скoрoсть ветра измеряется на высoте 10 м (на урoвне рoста челoвека скoрoсть ветра ниже в 1.5-2 раза). Если метеoстанция нахoдится в гoрoде или в лесу, тo скoрoсть ветра занижена на 2-4 м/с пo сравнению с oткрытым местoм. Скoрoсть ветра над акватoриями крупных рек и oзёр, а также на вершинах хoлмoв на 2-5 м/с выше, чем в oбычных услoвиях.
Атмoсфернoе давление в разных тoчках местнoсти мoжет значительнo oтличаться oт давления на метеoстанции, в зависимoсти oт услoвий рельефа (при пoдъёме на 10 м давление пoнижается примернo на 1 мм рт.ст.).